Raton, NM

9:26 AM MST on November 20, 2017 (GMT -0700)
Raton Municipal-Crews

Weather History for KRTN - September, 2013

Change the Weather History Date:

Thursday, September 26, 2013

  Actual Average (KTAD) Record (KTAD)
Temperature  
Mean Temperature 64 °F -  
Max Temperature 81 °F 76 °F 90 °F (1953)
Min Temperature 48 °F 45 °F 30 °F (1970)
Degree Days  
Heating Degree Days 1    
Growing Degree Days 14 (Base 50)    
Moisture  
Dew Point 35 °F    
Average Humidity 35    
Maximum Humidity 64    
Minimum Humidity 14    
Precipitation  
Precipitation 0.00 in - - ()
Sea Level Pressure  
Sea Level Pressure 29.59 in    
Wind  
Wind Speed 11 mph (SSW)    
Max Wind Speed 30 mph    
Max Gust Speed 44 mph    
Visibility 10 miles    
Events      
Averages and records for this station are not official NWS values.
T = Trace of Precipitation, MM = Missing Value Source: NWS Daily Summary

Daily Weather History Graph

Daily Weather History Graph

Search for Another Location

Airport or City:

Trip Planner

Search our weather history database for the weather conditions in past years. The results will help you decide how hot, cold, wet, or windy it might be!

Date:

Astronomy

Sep. 26, 2013 Rise Set
Actual Time 6:49 AM MDT 6:48 PM MDT
Civil Twilight 6:23 AM MDT 7:14 PM MDT
Nautical Twilight 5:53 AM MDT 7:44 PM MDT
Astronomical Twilight 5:23 AM MDT 8:14 PM MDT
Moon 11:56 PM MDT (9/26) 1:35 PM MDT (9/26)
Length of Visible Light 12h 50m
Length of Day
11h 59m
Waning Gibbous, 54% of the Moon is Illuminated
Sep 26
Waning Gibbous
Sep 26
Last Quarter
Oct 4
New
Oct 11
First Quarter
Oct 18
Full

Hourly Weather History & Observations

Time (MDT) Temp. Dew Point Humidity Pressure Visibility Wind Dir Wind Speed Gust Speed Precip Events Conditions
12:53 AM 60.1 °F 43.0 °F 53% 29.52 in 10.0 mi WSW 11.5 mph 18.4 mph N/A   Clear
1:53 AM 60.1 °F 41.0 °F 49% 29.51 in 10.0 mi SSW 17.3 mph 25.3 mph N/A   Clear
2:53 AM 60.1 °F 37.9 °F 44% 29.53 in 10.0 mi Calm Calm - N/A   Clear
3:53 AM 57.9 °F 35.1 °F 42% 29.53 in 10.0 mi SSW 8.1 mph - N/A   Clear
4:53 AM 48.9 °F 37.0 °F 64% 29.57 in 10.0 mi NNW 4.6 mph - N/A   Clear
5:53 AM 55.0 °F 33.1 °F 43% 29.58 in 10.0 mi Calm Calm - N/A   Clear
6:53 AM 53.1 °F 33.1 °F 47% 29.63 in 10.0 mi Calm Calm - N/A   Clear
7:53 AM 59.0 °F 37.0 °F 44% 29.64 in 10.0 mi West 4.6 mph - N/A   Clear
8:53 AM 63.0 °F 41.0 °F 45% 29.66 in 10.0 mi SE 6.9 mph - N/A   Clear
9:53 AM 70.0 °F 30.0 °F 23% 29.64 in 10.0 mi South 6.9 mph - N/A   Clear
10:53 AM 73.0 °F 30.0 °F 20% 29.62 in 10.0 mi South 8.1 mph - N/A   Clear
11:53 AM 75.0 °F 30.9 °F 20% 29.62 in 10.0 mi South 10.4 mph 17.3 mph N/A   Clear
12:53 PM 79.0 °F 25.0 °F 14% 29.58 in 10.0 mi SSW 19.6 mph - N/A   Clear
1:53 PM 79.0 °F 27.0 °F 15% 29.57 in 10.0 mi SW 16.1 mph 25.3 mph N/A   Clear
2:53 PM 80.1 °F 27.0 °F 14% 29.55 in 10.0 mi SSW 17.3 mph 23.0 mph N/A   Clear
3:53 PM 80.1 °F 28.0 °F 15% 29.54 in 10.0 mi South 29.9 mph 38.0 mph N/A   Clear
4:53 PM 78.1 °F 27.0 °F 15% 29.57 in 10.0 mi SSW 29.9 mph 40.3 mph N/A   Clear
5:53 PM 75.0 °F 34.0 °F 22% 29.57 in 10.0 mi SSW 26.5 mph 43.7 mph N/A   Clear
6:53 PM 70.0 °F 34.0 °F 27% 29.61 in 10.0 mi SSW 18.4 mph 27.6 mph N/A   Clear
7:53 PM 63.0 °F 37.9 °F 40% 29.63 in 10.0 mi SW 11.5 mph - N/A   Clear
8:53 PM 60.1 °F 39.0 °F 46% 29.66 in 10.0 mi WSW 10.4 mph - N/A   Clear
9:53 PM 63.0 °F 39.9 °F 43% 29.63 in 10.0 mi SSW 17.3 mph - N/A   Clear
10:53 PM 60.1 °F 41.0 °F 49% 29.63 in 10.0 mi SSW 15.0 mph - N/A   Clear
11:53 PM 57.9 °F 42.1 °F 56% 29.63 in 10.0 mi SW 12.7 mph - N/A   Clear